星链-36244(STARLINK-36244)

导读

STARLINK-36244(NORAD编号68145)是美国SpaceX星链(Starlink)项目旗下的低轨互联网通信卫星,采用Starlink V1.0平台设计,归属美国太空探索技术公司运营制造,于2024年12月8日发射升空。 作为星链星座组成部分,它运行在近地轨道,近地点约355公里、远地点约357公里,轨道倾角43度,轨道周期约91.66分钟,主要为全球提供高速低延迟互联网接入服务,支持偏远地区联网与特定行业通信需求。目前该卫星处于在轨正常运行状态。

基本信息
目录编号:
68145
目录名称:
STARLINK-36244
国际标识:
2026-049D
轨道中心:
EARTH
卫星名称:
星链-36244
卫星全名:
星链-36244(STARLINK-36244)
卫星状态:
在轨 (已飞行176 天)
发射日期:
2026-03-13 UTC
国别 :
美国 (US)
星等 :
--
轨道信息
数据来源 国际轨道数据 AOE轨道数据
星历时间 2026-09-05T15:26:18+0800
5小时前
查看轨道信息
2026-09-02T00:00:00+0800
3天前
查看轨道信息
半长轴 6843.682km 6843.615km
偏心率 0.0002421 0.0001332
轨道倾角 97.285° 97.284°
近地点辐角 114.701° 133.012°
升交点赤经 268.491° 264.899°
平近点角 245.449° 287.928°
近地点 463.888km 464.566km
远地点 467.202km 466.39km
周期 93.906分钟 93.905分钟
每日圈数 15.334447 15.334672
详细信息
固有亮度:
5
最大亮度:
2.5
卫星平台:
Starlink V1.0
覆盖范围:
全球
运营商:
太空探索技术公司
运营商所在国:
美国
制造商(研发单位):
太空探索技术公司
制造商所在国:
美国
使用方式:
暂无
卫星简介
Starlink 计划是 SpaceX 推出的全球卫星互联网项目,通过发射低轨道卫星,为全球尤其是偏远地区提供高速、低延迟的互联网服务。自 2019 年起,Starlink 已部署数千颗卫星,旨在缩小全球数字鸿沟,推动互联网普及。该项目还为军事、航空等行业提供通信支持,带来广泛经济效益。
2D轨道图
3D轨道图
轨道高度分析图
轨道倾角分析图
轨道综合分析图
查看轨道综合分析图
交会数据列表
事件ID 空间交会对象 最接近时刻(TCA) 交会距离 交会风险概率(CRP) 交会风险指数(CRI) 操作
CDM_260906-081206-814506-866622
2026-09-06T
08:12:51+0000
0.832 km
远距离
4.978227E-5 中风险 0.69
CDM_260906-094606-814506-866622
2026-09-06T
09:46:48+0000
1.197 km
极远距离
1.436653E-5 中风险 0.58
CDM_260906-063806-814506-866622
2026-09-06T
06:38:53+0000
1.198 km
极远距离
1.432013E-5 中风险 0.58
CDM_260906-195706-814506-866621
2026-09-06T
19:57:33+0000
1.545 km
极远距离
6.042965E-6 低风险 0.51
CDM_260906-213106-814506-866622
2026-09-06T
21:31:31+0000
1.656 km
极远距离
4.856805E-6 低风险 0.49
CDM_260903-041905-247206-814522
2026-09-03T
04:19:17+0000
1.677 km
极远距离
3.526441E-6 低风险 0.46
CDM_260906-050406-814506-866621
2026-09-06T
05:04:55+0000
1.896 km
极远距离
3.267312E-6 低风险 0.45
CDM_260906-112006-814506-866622
2026-09-06T
11:20:46+0000
1.932 km
极远距离
3.106083E-6 低风险 0.45
CDM_260906-182306-814506-866621
2026-09-06T
18:23:35+0000
1.980 km
极远距离
2.916881E-6 低风险 0.44
CDM_260905-214204-943206-814521
2026-09-05T
21:42:07+0000
2.164 km
极远距离
2.312387E-6 低风险 0.42